Flag for U.S.A. Weather past 2 weeks in Bradenton, Florida, U.S.A.

Now
52 °F

Clear.


Feels Like: 52 °F
Forecast: 53 / 68 °F
Wind: 3 mph from Northeast

Location: Sarasota-Bradenton International Airport

Current Time: Jan 30, 2015 at 1:43:42 AM

Latest Report: Jan 30, 2015 at 12:53 AM


Visibility: 10 mi

Pressure: 30.22 "Hg

Humidity: 93%

Dew point: 50 °F

Location of BradentonLocation

Historic Weather in Bradenton — Graph

°F

Bradenton temperature yesterday

Maximum temperature yesterday: 70 °F (at 1:53 PM)
Minimum temperature yesterday: 43 °F (at 3:53 AM)
Average temperature yesterday: 56 °F

Past Weeks' High & Low Weather Summary

 TemperatureHumidityPressure
High79 °F (Jan 23, 12:53 PM)100% (Jan 17, 10:53 PM)30.30 "Hg (Jan 17, 10:53 PM)
Low43 °F (Jan 29, 3:53 AM)27% (Jan 19, 4:53 PM)29.83 "Hg (Jan 24, 3:53 AM)
Average60 °F76%30.07 "Hg
* Reported Jan 15 12:53 AM — Jan 30 12:53 AM, Bradenton, Weather by CustomWeather, © 2014

Note: Actual official high and low records may vary slightly from our data, if they occured in-between our weather recording intervals... More about our weather records

Advertising

Bradenton weather history for previous 24 hours

 ConditionsComfort  
Time TempWeatherWind HumidityBarometerVisibility
12:53 AM
Jan 30
52 °FClear.3 mph93%30.22 "Hg10 mi
11:53 PM
Jan 29
53 °FClear.3 mph89%30.22 "Hg10 mi
10:53 PM54 °FClear.5 mph90%30.23 "Hg10 mi
9:53 PM55 °FClear.5 mph90%30.24 "Hg10 mi
8:53 PM57 °FClear.3 mph83%30.24 "Hg10 mi
7:53 PM58 °FClear.3 mph70%30.23 "Hg10 mi
6:53 PM60 °FClear.3 mph65%30.22 "Hg10 mi
5:53 PM63 °FSunny.8 mph58%30.22 "Hg10 mi
4:53 PM67 °FSunny.9 mph53%30.21 "Hg10 mi
3:53 PM68 °FSunny.9 mph47%30.20 "Hg10 mi
2:53 PM70 °FSunny.5 mph37%30.20 "Hg10 mi
1:53 PM70 °FSunny.3 mph35%30.22 "Hg10 mi
12:53 PM69 °FSunny.6 mph41%30.24 "Hg10 mi
11:53 AM67 °FSunny.9 mph44%30.27 "Hg10 mi
10:53 AM64 °FSunny.9 mph54%30.29 "Hg10 mi
9:53 AM58 °FSunny.9 mph62%30.30 "Hg10 mi
8:53 AM50 °FSunny.10 mph74%30.29 "Hg10 mi
7:53 AM46 °FSunny.8 mph79%30.29 "Hg10 mi
6:53 AM44 °FClear.8 mph82%30.26 "Hg10 mi
5:53 AM44 °FClear.8 mph79%30.25 "Hg10 mi
4:53 AM44 °FClear.7 mph82%30.24 "Hg10 mi
3:53 AM43 °FClear.7 mph86%30.24 "Hg10 mi
2:53 AM44 °FClear.5 mph85%30.26 "Hg10 mi
1:53 AM45 °FClear.7 mph82%30.26 "Hg10 mi
Weather by CustomWeather, © 2014

See weather overviewHow to use our weather pages